Jackson, MS

4:37 AM CDT on October 24, 2017 (GMT -0500)
Jackson-Evers International

Weather History for KJAN - December, 2013

Change the Weather History Date:

Saturday, December 14, 2013

  Actual Average Record
Temperature  
Mean Temperature 39 °F 48 °F  
Max Temperature 54 °F 58 °F 81 °F (1987)
Min Temperature 24 °F 37 °F 18 °F (1958)
Degree Days  
Heating Degree Days 26 17  
Month to date heating degree days 228 223  
Since 1 July heating degree days 690 631  
Cooling Degree Days 0 0  
Month to date cooling degree days 8 0  
Year to date cooling degree days 2355 2253  
Growing Degree Days 2 (Base 50)    
Moisture  
Dew Point 49 °F    
Average Humidity 64    
Maximum Humidity 92    
Minimum Humidity 36    
Precipitation  
Precipitation 0.09 in 0.16 in 4.00 in (1901)
Month to date precipitation 1.61 2.45  
Year to date precipitation 61.37 51.44  
Sea Level Pressure  
Sea Level Pressure 29.93 in    
Wind  
Wind Speed 7 mph (WNW)    
Max Wind Speed 21 mph    
Max Gust Speed 29 mph    
Visibility 8 miles    
Events Rain    
T = Trace of Precipitation, MM = Missing Value Source: NWS Daily Summary

Daily Weather History Graph

Daily Weather History Graph

Search for Another Location

Airport or City:

Trip Planner

Search our weather history database for the weather conditions in past years. The results will help you decide how hot, cold, wet, or windy it might be!

Date:

Astronomy

Dec. 14, 2013 Rise Set
Actual Time 6:53 AM CST 4:56 PM CST
Civil Twilight 6:26 AM CST 5:23 PM CST
Nautical Twilight 5:55 AM CST 5:54 PM CST
Astronomical Twilight 5:26 AM CST 6:24 PM CST
Moon 3:13 PM CST (12/14) 4:20 AM CST (12/14)
Length of Visible Light 10h 57m
Length of Day
10h 03m
Waxing Gibbous, 94% of the Moon is Illuminated
Dec 14
Waxing Gibbous
Dec 17
Full
Dec 25
Last Quarter
Jan 1
New
Jan 7
First Quarter

Hourly Weather History & Observations

Time (CST) Temp. Windchill Dew Point Humidity Pressure Visibility Wind Dir Wind Speed Gust Speed Precip Events Conditions
12:54 AM 50.0 °F - 46.9 °F 89% 29.87 in 5.0 mi SSE 13.8 mph - 0.08 in Rain Light Rain
1:54 AM 51.1 °F - 48.0 °F 89% 29.86 in 10.0 mi SSE 11.5 mph - 0.05 in Rain Light Rain
2:47 AM 51.8 °F - 50.0 °F 94% 29.83 in 10.0 mi SSE 12.7 mph - 0.06 in Rain Light Rain
2:54 AM 53.1 °F - 51.1 °F 93% 29.82 in 10.0 mi South 10.4 mph - 0.06 in Rain Light Rain
3:37 AM 53.6 °F - 53.6 °F 100% 29.83 in 2.5 mi South 11.5 mph - 0.04 in Rain Heavy Rain
3:41 AM 53.6 °F - 53.6 °F 100% 29.84 in 3.0 mi SSW 10.4 mph - 0.07 in Rain Rain
3:54 AM 55.0 °F - 53.1 °F 93% 29.83 in 4.0 mi South 8.1 mph - 0.11 in Rain Rain
4:12 AM 55.4 °F - 53.6 °F 94% 29.86 in 2.5 mi West 6.9 mph 17.3 mph 0.04 in Rain Heavy Rain
4:18 AM 55.4 °F - 53.6 °F 94% 29.87 in 2.5 mi West 6.9 mph - 0.11 in Rain Rain
4:20 AM 55.4 °F - 53.6 °F 94% 29.87 in 3.0 mi Variable 6.9 mph - 0.11 in Rain Light Rain
4:28 AM 55.4 °F - 53.6 °F 94% 29.87 in 8.0 mi West 5.8 mph - 0.12 in Rain Light Rain
4:54 AM 54.0 °F - 53.1 °F 97% 29.86 in 10.0 mi Calm Calm - 0.12 in   Overcast
5:05 AM 53.6 °F - 53.6 °F 100% 29.85 in 9.0 mi Calm Calm - N/A   Overcast
5:13 AM 53.6 °F - 51.8 °F 94% 29.85 in 10.0 mi SSE 4.6 mph - N/A   Mostly Cloudy
5:44 AM 53.6 °F - 53.6 °F 100% 29.85 in 10.0 mi SSE 4.6 mph - N/A   Overcast
5:54 AM 54.0 °F - 53.1 °F 97% 29.86 in 10.0 mi SSE 4.6 mph - N/A   Overcast
6:15 AM 53.6 °F - 53.6 °F 100% 29.87 in 5.0 mi South 3.5 mph - 0.00 in Rain Light Rain
6:54 AM 54.0 °F - 53.1 °F 97% 29.87 in 3.0 mi Calm Calm - 0.01 in   Overcast
7:54 AM 55.9 °F - 54.0 °F 93% 29.89 in 4.0 mi Calm Calm - N/A   Overcast
8:39 AM 57.2 °F - 55.4 °F 94% 29.91 in 5.0 mi Calm Calm - N/A   Overcast
8:46 AM 57.2 °F - 55.4 °F 94% 29.90 in 4.0 mi West 4.6 mph - N/A   Overcast
8:54 AM 57.0 °F - 55.9 °F 96% 29.91 in 4.0 mi WSW 4.6 mph - N/A   Overcast
9:10 AM 57.2 °F - 55.4 °F 94% 29.91 in 4.0 mi West 3.5 mph - N/A   Overcast
9:21 AM 57.2 °F - 55.4 °F 94% 29.92 in 4.0 mi West 3.5 mph - N/A   Overcast
9:54 AM 59.0 °F - 55.0 °F 87% 29.92 in 7.0 mi West 8.1 mph - N/A   Mostly Cloudy
10:54 AM 60.1 °F - 53.1 °F 78% 29.91 in 10.0 mi West 6.9 mph - N/A   Scattered Clouds
11:24 AM 60.8 °F - 53.6 °F 77% 29.90 in 10.0 mi Variable 5.8 mph - N/A   Overcast
11:54 AM 60.1 °F - 53.1 °F 78% 29.88 in 10.0 mi WNW 6.9 mph - N/A   Mostly Cloudy
12:54 PM 59.0 °F - 52.0 °F 78% 29.89 in 10.0 mi NW 9.2 mph - N/A   Mostly Cloudy
1:51 PM 55.4 °F - 51.8 °F 88% 29.88 in 10.0 mi NW 6.9 mph - N/A   Overcast
1:54 PM 57.0 °F - 51.1 °F 81% 29.88 in 10.0 mi NW 8.1 mph - N/A   Overcast
2:43 PM 53.6 °F - 48.2 °F 82% 29.92 in 10.0 mi NW 12.7 mph - N/A   Overcast
2:54 PM 52.0 °F - 48.9 °F 89% 29.92 in 10.0 mi WNW 9.2 mph - N/A   Overcast
3:54 PM 51.1 °F - 48.0 °F 89% 29.95 in 10.0 mi West 6.9 mph - N/A   Overcast
4:37 PM 48.2 °F - 46.4 °F 93% 29.97 in 2.0 mi NNW 16.1 mph 24.2 mph 0.00 in Rain Light Rain
4:54 PM 48.0 °F - 46.0 °F 93% 29.98 in 3.0 mi NW 10.4 mph 16.1 mph 0.00 in Rain Light Rain
5:45 PM 46.4 °F 41.9 °F 44.6 °F 93% 30.00 in 6.0 mi NNW 9.2 mph - 0.00 in   Overcast
5:54 PM 46.9 °F - 44.1 °F 90% 30.00 in 6.0 mi NNW 11.5 mph - 0.00 in   Overcast
6:54 PM 46.0 °F 40.2 °F 42.1 °F 86% 30.04 in 10.0 mi NNW 12.7 mph - N/A   Overcast
7:10 PM 46.4 °F 41.5 °F 41.0 °F 81% 30.05 in 10.0 mi NNW 10.4 mph - N/A   Overcast
7:41 PM 46.4 °F 40.7 °F 39.2 °F 76% 30.05 in 10.0 mi NNW 12.7 mph 18.4 mph N/A   Overcast
7:54 PM 45.0 °F 38.5 °F 39.0 °F 80% 30.06 in 10.0 mi NNW 13.8 mph 20.7 mph N/A   Overcast
8:54 PM 44.1 °F 38.6 °F 37.9 °F 79% 30.08 in 10.0 mi NNW 10.4 mph - N/A   Overcast
9:25 PM 44.6 °F 38.8 °F 37.4 °F 76% 30.09 in 10.0 mi NNW 11.5 mph - N/A   Overcast
9:54 PM 44.1 °F 39.5 °F 37.0 °F 76% 30.09 in 10.0 mi NW 8.1 mph - N/A   Overcast
10:54 PM 43.0 °F 37.2 °F 36.0 °F 76% 30.11 in 10.0 mi NW 10.4 mph - N/A   Overcast
11:54 PM 43.0 °F 36.8 °F 34.0 °F 71% 30.13 in 10.0 mi NNW 11.5 mph - N/A   Overcast